GEFSMW_prec_meanprecacc_072.txt.gz
Total_Precipitation_Accumulation
0.17 0.20 0.22 0.25 0.24 0.23 0.27 0.34 0.40 0.49 0.60 0.82 1.14 1.57 1.78 1.89 1.90 1.92 1.83 1.63 1.41 1.40 1.51 1.44 1.36 1.28 1.21 1.06 0.85 0.84 0.72 0.49 0.30 0.34 0.34 0.24 0.13 0.10 0.09 0.07 0.07 0.08 0.08
0.12 0.11 0.13 0.15 0.14 0.14 0.17 0.26 0.32 0.42 0.55 0.81 1.13 1.48 1.83 1.91 1.92 1.91 1.87 1.75 1.63 1.63 1.65 1.79 1.83 1.74 1.74 1.65 1.35 1.33 1.24 0.89 0.58 0.68 0.85 0.63 0.42 0.22 0.14 0.12 0.11 0.10 0.11
0.11 0.09 0.08 0.09 0.10 0.11 0.12 0.18 0.24 0.38 0.66 0.99 1.30 1.49 1.78 1.90 1.95 1.89 1.90 1.94 1.89 1.79 1.79 1.88 1.98 1.95 1.93 1.92 1.88 1.71 1.68 1.42 0.99 0.78 0.91 0.85 0.74 0.53 0.24 0.17 0.19 0.18 0.17
0.14 0.12 0.09 0.07 0.08 0.09 0.11 0.14 0.20 0.39 0.73 1.07 1.33 1.55 1.90 2.00 1.91 1.95 1.97 2.00 2.02 1.97 2.01 2.02 2.08 2.06 2.01 2.02 2.01 1.84 1.83 1.81 1.43 1.12 0.87 0.74 0.71 0.67 0.49 0.30 0.24 0.25 0.21
0.15 0.12 0.10 0.09 0.10 0.10 0.13 0.19 0.32 0.51 0.76 0.97 1.22 1.57 1.81 1.91 2.00 1.96 1.99 1.99 2.03 2.03 2.05 2.10 2.22 2.19 2.09 2.03 2.15 2.08 2.01 1.89 1.78 1.56 1.33 1.15 0.96 0.67 0.66 0.62 0.44 0.33 0.25
0.16 0.16 0.15 0.15 0.16 0.18 0.24 0.32 0.47 0.62 0.82 0.98 1.18 1.37 1.61 1.74 1.89 1.99 1.92 1.90 1.93 2.00 1.88 1.83 1.94 1.97 1.98 1.96 2.05 2.12 2.15 2.05 2.03 1.83 1.49 1.35 1.18 0.95 0.89 0.77 0.62 0.52 0.34
0.26 0.30 0.31 0.34 0.41 0.44 0.47 0.55 0.64 0.75 0.85 0.95 1.03 1.09 1.26 1.41 1.46 1.60 1.69 1.79 1.81 1.85 1.84 1.74 1.71 1.69 1.64 1.66 1.74 1.78 1.77 1.84 1.92 1.78 1.53 1.44 1.22 1.09 1.04 0.92 0.77 0.63 0.39
0.43 0.53 0.61 0.69 0.76 0.75 0.74 0.80 0.85 0.83 0.81 0.86 0.92 0.94 1.00 1.07 1.13 1.16 1.20 1.36 1.52 1.56 1.62 1.60 1.51 1.52 1.57 1.56 1.60 1.61 1.59 1.53 1.55 1.55 1.53 1.51 1.34 1.18 1.06 1.01 1.05 0.90 0.71
0.71 0.81 0.91 0.92 0.93 0.90 0.85 0.85 0.88 0.85 0.83 0.82 0.82 0.78 0.75 0.79 0.88 0.90 0.96 1.01 1.11 1.13 1.19 1.27 1.29 1.32 1.39 1.44 1.55 1.59 1.58 1.47 1.41 1.47 1.49 1.40 1.30 1.20 1.07 1.00 0.98 0.99 0.90
1.06 1.19 1.27 1.17 1.10 1.09 1.13 1.01 0.92 0.85 0.81 0.81 0.80 0.74 0.68 0.70 0.72 0.73 0.81 0.79 0.78 0.78 0.83 0.93 1.04 1.16 1.27 1.37 1.44 1.46 1.53 1.50 1.44 1.46 1.52 1.53 1.47 1.42 1.30 1.15 1.06 0.95 0.92
1.43 1.52 1.53 1.43 1.23 1.10 1.09 1.03 0.92 0.81 0.71 0.70 0.74 0.73 0.66 0.66 0.67 0.65 0.62 0.58 0.59 0.63 0.71 0.74 0.84 0.92 1.00 1.18 1.35 1.39 1.41 1.41 1.37 1.33 1.38 1.48 1.53 1.56 1.50 1.41 1.24 1.08 1.02
1.30 1.34 1.30 1.29 1.18 1.08 0.99 0.95 0.84 0.71 0.65 0.69 0.70 0.72 0.62 0.56 0.58 0.56 0.56 0.51 0.49 0.51 0.56 0.65 0.77 0.85 0.85 0.88 1.01 1.07 1.08 1.11 1.15 1.12 1.11 1.19 1.27 1.36 1.44 1.43 1.36 1.29 1.16
0.98 1.07 1.13 1.04 1.00 0.92 0.87 0.94 0.94 0.83 0.81 0.84 0.89 0.81 0.67 0.62 0.59 0.54 0.53 0.49 0.49 0.52 0.55 0.62 0.72 0.77 0.74 0.74 0.74 0.75 0.81 0.85 0.86 0.87 0.85 0.86 0.96 1.10 1.21 1.28 1.29 1.31 1.30
0.78 0.84 0.92 0.88 0.89 0.83 0.80 0.89 0.93 0.95 1.02 1.10 1.06 0.88 0.76 0.68 0.60 0.53 0.48 0.47 0.50 0.53 0.58 0.69 0.73 0.74 0.67 0.68 0.69 0.68 0.66 0.65 0.63 0.65 0.64 0.65 0.67 0.75 0.88 1.04 1.19 1.28 1.31
0.56 0.55 0.55 0.56 0.63 0.63 0.60 0.64 0.71 0.82 0.98 1.05 0.94 0.79 0.67 0.57 0.51 0.52 0.48 0.47 0.51 0.52 0.57 0.60 0.67 0.71 0.68 0.67 0.69 0.66 0.57 0.54 0.55 0.52 0.45 0.44 0.47 0.48 0.53 0.60 0.81 1.02 1.15
0.33 0.31 0.28 0.28 0.33 0.33 0.35 0.39 0.47 0.62 0.84 0.93 0.80 0.63 0.56 0.52 0.48 0.46 0.42 0.40 0.40 0.42 0.47 0.49 0.61 0.70 0.65 0.76 0.70 0.58 0.49 0.48 0.48 0.44 0.41 0.40 0.41 0.36 0.30 0.31 0.43 0.63 0.82
0.23 0.24 0.22 0.20 0.20 0.20 0.23 0.30 0.36 0.50 0.60 0.62 0.57 0.47 0.41 0.39 0.38 0.37 0.37 0.38 0.40 0.41 0.44 0.46 0.55 0.64 0.75 0.69 0.51 0.49 0.47 0.48 0.49 0.50 0.52 0.47 0.42 0.47 0.36 0.30 0.30 0.34 0.41
0.21 0.21 0.21 0.20 0.21 0.22 0.23 0.32 0.37 0.39 0.44 0.52 0.50 0.43 0.38 0.35 0.35 0.33 0.35 0.43 0.43 0.41 0.44 0.47 0.48 0.56 0.66 0.55 0.40 0.42 0.39 0.48 0.54 0.55 0.60 0.63 0.59 0.53 0.53 0.47 0.49 0.46 0.39
0.13 0.13 0.13 0.12 0.12 0.12 0.11 0.13 0.17 0.22 0.27 0.30 0.35 0.34 0.29 0.30 0.33 0.33 0.38 0.42 0.42 0.46 0.46 0.47 0.48 0.52 0.55 0.48 0.38 0.39 0.46 0.58 0.59 0.54 0.61 0.65 0.60 0.62 0.61 0.66 0.73 0.66 0.53
0.03 0.03 0.03 0.03 0.03 0.02 0.03 0.04 0.05 0.06 0.09 0.10 0.14 0.18 0.19 0.22 0.28 0.37 0.43 0.41 0.39 0.43 0.44 0.42 0.40 0.43 0.44 0.47 0.36 0.45 0.57 0.61 0.61 0.60 0.64 0.79 0.70 0.66 0.59 0.58 0.69 0.71 0.60
0.00 0.00 0.00 0.01 0.01 0.01 0.01 0.02 0.02 0.02 0.02 0.02 0.04 0.07 0.11 0.17 0.25 0.32 0.31 0.31 0.34 0.37 0.38 0.42 0.41 0.41 0.46 0.54 0.54 0.59 0.60 0.63 0.67 0.74 0.79 0.74 0.78 0.59 0.52 0.50 0.47 0.53 0.53
0.00 0.00 0.00 0.00 0.00 0.00 0.00 0.00 0.00 0.00 0.00 0.00 0.01 0.02 0.04 0.07 0.12 0.20 0.23 0.26 0.29 0.30 0.30 0.32 0.33 0.36 0.46 0.52 0.53 0.55 0.58 0.63 0.63 0.68 0.67 0.62 0.67 0.50 0.41 0.35 0.37 0.36 0.35
0.00 0.00 0.00 0.00 0.00 0.00 0.00 0.00 0.00 0.00 0.00 0.00 0.00 0.00 0.01 0.02 0.06 0.12 0.17 0.21 0.27 0.29 0.27 0.26 0.28 0.31 0.35 0.41 0.43 0.43 0.42 0.43 0.45 0.43 0.50 0.50 0.45 0.39 0.31 0.32 0.33 0.31 0.32
0.00 0.00 0.00 0.00 0.00 0.00 0.00 0.00 0.00 0.00 0.00 0.00 0.00 0.00 0.01 0.01 0.03 0.06 0.13 0.21 0.24 0.23 0.23 0.25 0.27 0.31 0.33 0.33 0.33 0.37 0.37 0.34 0.35 0.34 0.35 0.33 0.31 0.33 0.32 0.31 0.32 0.32 0.34
0.00 0.00 0.00 0.00 0.00 0.00 0.00 0.00 0.00 0.00 0.00 0.00 0.00 0.00 0.00 0.01 0.02 0.02 0.06 0.13 0.15 0.14 0.18 0.23 0.27 0.31 0.34 0.30 0.27 0.27 0.32 0.37 0.41 0.45 0.38 0.32 0.30 0.31 0.36 0.36 0.31 0.32 0.34
0.00 0.00 0.00 0.00 0.00 0.00 0.00 0.00 0.00 0.00 0.00 0.00 0.00 0.00 0.00 0.01 0.01 0.02 0.03 0.05 0.05 0.07 0.08 0.09 0.13 0.13 0.13 0.13 0.13 0.16 0.21 0.27 0.33 0.45 0.50 0.50 0.53 0.53 0.52 0.48 0.37 0.31 0.29

GEFSMW_prec_meanprecacc_078.txt.gz
Total_Precipitation_Accumulation
0.17 0.20 0.22 0.25 0.24 0.23 0.27 0.34 0.40 0.50 0.60 0.82 1.14 1.58 1.79 1.89 1.91 1.93 1.84 1.64 1.42 1.42 1.54 1.49 1.44 1.39 1.31 1.19 1.02 1.02 0.90 0.66 0.46 0.47 0.43 0.31 0.20 0.15 0.13 0.11 0.11 0.11 0.10
0.12 0.11 0.13 0.15 0.14 0.14 0.17 0.26 0.33 0.42 0.55 0.82 1.13 1.48 1.83 1.91 1.92 1.92 1.87 1.75 1.64 1.64 1.67 1.82 1.87 1.81 1.83 1.76 1.50 1.49 1.39 1.06 0.75 0.82 0.98 0.73 0.49 0.26 0.18 0.17 0.15 0.14 0.14
0.11 0.09 0.08 0.09 0.10 0.11 0.12 0.18 0.24 0.38 0.66 0.99 1.30 1.49 1.78 1.90 1.95 1.89 1.90 1.94 1.89 1.79 1.80 1.89 2.00 1.99 2.01 2.03 2.01 1.86 1.83 1.58 1.16 0.94 1.04 0.94 0.80 0.59 0.28 0.21 0.23 0.22 0.21
0.14 0.12 0.09 0.07 0.08 0.09 0.11 0.14 0.20 0.39 0.73 1.07 1.33 1.56 1.91 2.01 1.94 1.97 1.98 2.01 2.03 1.99 2.03 2.03 2.10 2.10 2.07 2.10 2.14 2.01 2.00 1.98 1.60 1.29 1.02 0.83 0.77 0.72 0.53 0.34 0.28 0.29 0.25
0.15 0.12 0.10 0.09 0.10 0.10 0.13 0.19 0.33 0.51 0.76 0.97 1.23 1.57 1.81 1.93 2.06 2.01 2.00 2.01 2.05 2.05 2.07 2.12 2.24 2.22 2.13 2.09 2.24 2.21 2.17 2.05 1.92 1.70 1.49 1.30 1.05 0.72 0.69 0.66 0.48 0.37 0.29
0.16 0.16 0.15 0.15 0.16 0.18 0.24 0.33 0.48 0.63 0.83 1.00 1.19 1.38 1.63 1.77 1.92 2.02 1.94 1.93 1.96 2.03 1.92 1.86 1.97 2.01 2.01 2.00 2.11 2.24 2.30 2.21 2.19 1.98 1.62 1.47 1.29 1.03 0.94 0.80 0.65 0.56 0.38
0.26 0.30 0.31 0.34 0.41 0.44 0.47 0.55 0.65 0.75 0.86 0.95 1.04 1.10 1.27 1.43 1.49 1.63 1.72 1.82 1.84 1.88 1.88 1.77 1.75 1.72 1.67 1.70 1.79 1.86 1.90 1.98 2.10 1.96 1.69 1.57 1.33 1.18 1.14 1.00 0.82 0.68 0.43
0.43 0.53 0.61 0.69 0.76 0.75 0.74 0.80 0.85 0.84 0.82 0.87 0.93 0.95 1.01 1.09 1.15 1.18 1.23 1.38 1.55 1.59 1.65 1.63 1.56 1.56 1.60 1.60 1.65 1.66 1.66 1.64 1.68 1.70 1.70 1.68 1.49 1.30 1.16 1.10 1.13 0.96 0.75
0.71 0.81 0.91 0.92 0.93 0.90 0.85 0.86 0.88 0.86 0.84 0.84 0.83 0.79 0.77 0.81 0.90 0.92 0.98 1.03 1.12 1.15 1.22 1.30 1.33 1.36 1.42 1.47 1.57 1.63 1.63 1.55 1.50 1.57 1.63 1.56 1.46 1.37 1.22 1.12 1.08 1.08 0.97
1.06 1.19 1.27 1.17 1.10 1.09 1.13 1.01 0.92 0.85 0.82 0.82 0.81 0.75 0.70 0.72 0.74 0.75 0.82 0.80 0.81 0.81 0.86 0.97 1.09 1.21 1.32 1.41 1.48 1.51 1.58 1.58 1.53 1.56 1.65 1.67 1.62 1.57 1.46 1.31 1.20 1.07 1.02
1.43 1.52 1.53 1.43 1.23 1.10 1.09 1.03 0.92 0.81 0.71 0.70 0.75 0.74 0.67 0.67 0.69 0.67 0.64 0.60 0.62 0.66 0.75 0.79 0.89 0.99 1.09 1.26 1.43 1.47 1.49 1.49 1.46 1.42 1.47 1.57 1.63 1.68 1.65 1.58 1.43 1.26 1.17
1.30 1.34 1.30 1.29 1.18 1.08 0.99 0.95 0.84 0.71 0.65 0.69 0.71 0.72 0.63 0.58 0.60 0.58 0.58 0.52 0.50 0.53 0.60 0.69 0.82 0.93 0.96 0.97 1.09 1.16 1.18 1.19 1.24 1.23 1.21 1.28 1.36 1.46 1.56 1.59 1.53 1.44 1.29
0.98 1.07 1.13 1.04 1.00 0.92 0.87 0.94 0.94 0.83 0.81 0.84 0.89 0.81 0.68 0.63 0.62 0.56 0.56 0.52 0.51 0.54 0.58 0.67 0.78 0.82 0.82 0.84 0.81 0.84 0.91 0.95 0.96 1.00 0.98 0.99 1.07 1.19 1.29 1.38 1.40 1.44 1.42
0.78 0.84 0.92 0.88 0.89 0.83 0.80 0.89 0.93 0.95 1.02 1.10 1.06 0.88 0.76 0.68 0.62 0.56 0.50 0.49 0.52 0.55 0.60 0.72 0.79 0.79 0.73 0.77 0.77 0.75 0.74 0.74 0.72 0.75 0.77 0.80 0.80 0.85 0.97 1.13 1.29 1.40 1.44
0.56 0.55 0.55 0.56 0.63 0.63 0.60 0.64 0.71 0.82 0.98 1.05 0.94 0.79 0.67 0.57 0.51 0.53 0.49 0.48 0.52 0.54 0.59 0.64 0.73 0.77 0.75 0.75 0.77 0.71 0.62 0.60 0.63 0.60 0.52 0.54 0.59 0.58 0.61 0.68 0.93 1.13 1.26
0.33 0.31 0.28 0.28 0.33 0.33 0.35 0.39 0.47 0.62 0.84 0.93 0.80 0.63 0.56 0.53 0.48 0.47 0.42 0.40 0.41 0.43 0.48 0.52 0.67 0.79 0.72 0.81 0.76 0.62 0.53 0.52 0.55 0.52 0.47 0.47 0.50 0.44 0.37 0.38 0.54 0.77 0.93
0.23 0.24 0.22 0.20 0.20 0.20 0.23 0.30 0.36 0.50 0.60 0.62 0.57 0.47 0.41 0.39 0.38 0.37 0.37 0.38 0.40 0.42 0.46 0.49 0.59 0.69 0.80 0.74 0.56 0.54 0.51 0.53 0.55 0.55 0.58 0.54 0.50 0.56 0.44 0.38 0.39 0.44 0.52
0.21 0.21 0.21 0.20 0.21 0.22 0.23 0.32 0.37 0.39 0.44 0.52 0.50 0.43 0.38 0.35 0.35 0.34 0.35 0.43 0.43 0.41 0.45 0.49 0.50 0.58 0.69 0.60 0.45 0.46 0.43 0.53 0.60 0.62 0.66 0.67 0.64 0.60 0.62 0.56 0.57 0.52 0.45
0.13 0.13 0.13 0.12 0.12 0.12 0.11 0.13 0.17 0.22 0.27 0.30 0.35 0.34 0.29 0.30 0.33 0.33 0.39 0.42 0.42 0.46 0.47 0.49 0.51 0.56 0.59 0.53 0.43 0.43 0.49 0.63 0.65 0.60 0.67 0.70 0.64 0.68 0.70 0.73 0.79 0.72 0.58
0.03 0.03 0.03 0.03 0.03 0.02 0.03 0.04 0.05 0.06 0.09 0.10 0.14 0.18 0.19 0.23 0.28 0.37 0.43 0.41 0.39 0.45 0.46 0.45 0.43 0.45 0.46 0.50 0.40 0.48 0.59 0.64 0.65 0.64 0.69 0.83 0.74 0.70 0.67 0.65 0.74 0.76 0.64
0.00 0.00 0.00 0.01 0.01 0.01 0.01 0.02 0.02 0.02 0.02 0.02 0.04 0.07 0.11 0.17 0.25 0.32 0.31 0.32 0.35 0.39 0.40 0.43 0.42 0.42 0.48 0.58 0.58 0.62 0.61 0.64 0.70 0.78 0.84 0.79 0.82 0.62 0.57 0.55 0.51 0.58 0.57
0.00 0.00 0.00 0.00 0.00 0.00 0.00 0.00 0.00 0.00 0.00 0.00 0.01 0.02 0.04 0.07 0.12 0.20 0.23 0.26 0.30 0.31 0.31 0.32 0.33 0.37 0.47 0.54 0.56 0.56 0.58 0.64 0.64 0.70 0.71 0.68 0.73 0.55 0.45 0.39 0.41 0.42 0.40
0.00 0.00 0.00 0.00 0.00 0.00 0.00 0.00 0.00 0.00 0.00 0.00 0.00 0.00 0.01 0.02 0.06 0.12 0.17 0.21 0.27 0.29 0.27 0.26 0.28 0.32 0.36 0.42 0.44 0.44 0.43 0.44 0.47 0.46 0.54 0.55 0.50 0.43 0.35 0.36 0.37 0.36 0.37
0.00 0.00 0.00 0.00 0.00 0.00 0.00 0.00 0.00 0.00 0.00 0.00 0.00 0.00 0.01 0.01 0.03 0.06 0.13 0.21 0.24 0.23 0.23 0.25 0.27 0.31 0.34 0.33 0.34 0.37 0.38 0.35 0.37 0.37 0.38 0.37 0.35 0.35 0.35 0.35 0.34 0.34 0.37
0.00 0.00 0.00 0.00 0.00 0.00 0.00 0.00 0.00 0.00 0.00 0.00 0.00 0.00 0.00 0.01 0.02 0.02 0.06 0.13 0.15 0.14 0.18 0.23 0.27 0.31 0.34 0.30 0.27 0.27 0.33 0.38 0.43 0.47 0.40 0.35 0.33 0.34 0.40 0.40 0.35 0.35 0.37
0.00 0.00 0.00 0.00 0.00 0.00 0.00 0.00 0.00 0.00 0.00 0.00 0.00 0.00 0.00 0.01 0.01 0.02 0.03 0.05 0.05 0.07 0.08 0.09 0.13 0.13 0.13 0.13 0.13 0.16 0.21 0.28 0.34 0.47 0.51 0.52 0.56 0.57 0.56 0.51 0.40 0.33 0.30

GEFSMW_prec_meanprecacc_084.txt.gz
Total_Precipitation_Accumulation
0.17 0.20 0.22 0.25 0.24 0.23 0.27 0.34 0.40 0.50 0.60 0.82 1.15 1.58 1.80 1.91 1.92 1.94 1.85 1.64 1.42 1.42 1.55 1.51 1.48 1.45 1.38 1.28 1.17 1.20 1.10 0.83 0.63 0.66 0.57 0.39 0.25 0.21 0.18 0.15 0.14 0.14 0.13
0.12 0.11 0.13 0.15 0.14 0.14 0.17 0.26 0.33 0.42 0.56 0.82 1.14 1.49 1.85 1.92 1.93 1.93 1.88 1.76 1.65 1.65 1.68 1.84 1.90 1.85 1.89 1.83 1.59 1.63 1.59 1.25 0.93 1.01 1.17 0.88 0.59 0.34 0.23 0.21 0.19 0.18 0.18
0.11 0.09 0.08 0.09 0.10 0.11 0.12 0.18 0.24 0.38 0.66 1.00 1.32 1.51 1.80 1.92 1.97 1.91 1.91 1.95 1.90 1.80 1.82 1.91 2.04 2.03 2.05 2.08 2.08 1.97 1.98 1.74 1.34 1.12 1.23 1.10 0.93 0.69 0.35 0.26 0.28 0.27 0.26
0.14 0.12 0.09 0.07 0.08 0.09 0.11 0.14 0.20 0.40 0.73 1.08 1.34 1.57 1.92 2.03 1.99 2.02 2.00 2.02 2.05 2.01 2.05 2.05 2.13 2.13 2.11 2.14 2.20 2.11 2.12 2.13 1.75 1.45 1.18 0.97 0.90 0.85 0.63 0.40 0.33 0.35 0.31
0.15 0.12 0.10 0.09 0.10 0.10 0.13 0.20 0.33 0.52 0.77 0.97 1.23 1.58 1.83 1.94 2.10 2.05 2.02 2.02 2.07 2.07 2.09 2.14 2.26 2.24 2.16 2.13 2.30 2.29 2.30 2.19 2.07 1.87 1.66 1.46 1.19 0.83 0.81 0.76 0.56 0.44 0.34
0.16 0.16 0.15 0.15 0.16 0.18 0.24 0.33 0.49 0.64 0.84 1.00 1.20 1.38 1.64 1.79 1.95 2.04 1.97 1.95 1.99 2.07 1.96 1.88 2.00 2.03 2.04 2.04 2.17 2.30 2.38 2.32 2.32 2.14 1.81 1.66 1.47 1.15 1.06 0.91 0.74 0.65 0.45
0.26 0.30 0.31 0.34 0.41 0.44 0.47 0.55 0.65 0.75 0.87 0.96 1.05 1.11 1.28 1.45 1.52 1.67 1.76 1.86 1.86 1.90 1.91 1.80 1.78 1.75 1.70 1.73 1.85 1.91 1.96 2.06 2.19 2.08 1.83 1.74 1.50 1.36 1.30 1.15 0.93 0.77 0.50
0.43 0.53 0.61 0.69 0.76 0.75 0.74 0.80 0.85 0.84 0.82 0.87 0.93 0.96 1.03 1.10 1.16 1.20 1.26 1.42 1.58 1.61 1.66 1.65 1.58 1.58 1.63 1.63 1.69 1.71 1.71 1.70 1.76 1.79 1.80 1.80 1.63 1.47 1.32 1.27 1.29 1.10 0.84
0.71 0.81 0.91 0.92 0.93 0.90 0.85 0.86 0.88 0.86 0.84 0.84 0.84 0.79 0.78 0.84 0.92 0.94 1.01 1.07 1.16 1.18 1.23 1.31 1.35 1.38 1.46 1.51 1.62 1.67 1.67 1.60 1.57 1.66 1.71 1.65 1.58 1.50 1.35 1.26 1.25 1.26 1.10
1.06 1.19 1.27 1.17 1.10 1.09 1.13 1.01 0.92 0.85 0.82 0.82 0.82 0.76 0.71 0.74 0.76 0.76 0.83 0.82 0.83 0.82 0.88 0.99 1.11 1.24 1.36 1.45 1.52 1.55 1.61 1.63 1.59 1.64 1.72 1.73 1.74 1.72 1.60 1.45 1.35 1.22 1.17
1.43 1.52 1.53 1.43 1.23 1.10 1.09 1.03 0.92 0.81 0.71 0.70 0.75 0.74 0.69 0.69 0.71 0.69 0.66 0.61 0.63 0.67 0.76 0.80 0.92 1.03 1.13 1.32 1.49 1.52 1.53 1.53 1.51 1.48 1.53 1.63 1.72 1.81 1.79 1.74 1.58 1.41 1.32
1.30 1.34 1.30 1.29 1.18 1.08 0.99 0.95 0.84 0.71 0.65 0.69 0.71 0.73 0.65 0.60 0.61 0.60 0.60 0.54 0.51 0.54 0.61 0.71 0.85 0.96 1.01 1.04 1.14 1.22 1.23 1.24 1.29 1.28 1.26 1.34 1.43 1.54 1.66 1.72 1.67 1.59 1.44
0.98 1.07 1.13 1.04 1.00 0.92 0.87 0.94 0.94 0.83 0.81 0.84 0.89 0.82 0.69 0.65 0.63 0.58 0.57 0.53 0.52 0.55 0.59 0.70 0.81 0.86 0.88 0.91 0.87 0.89 0.96 1.00 1.01 1.06 1.04 1.06 1.13 1.24 1.35 1.43 1.49 1.55 1.56
0.78 0.84 0.92 0.88 0.89 0.83 0.80 0.89 0.93 0.95 1.02 1.10 1.06 0.89 0.77 0.70 0.63 0.57 0.51 0.50 0.54 0.58 0.62 0.75 0.82 0.83 0.77 0.83 0.83 0.80 0.79 0.78 0.76 0.81 0.83 0.86 0.86 0.90 1.02 1.18 1.34 1.47 1.54
0.56 0.55 0.55 0.56 0.63 0.63 0.60 0.64 0.71 0.82 0.98 1.05 0.94 0.80 0.68 0.58 0.52 0.54 0.49 0.50 0.56 0.58 0.64 0.67 0.77 0.81 0.79 0.81 0.85 0.79 0.67 0.64 0.67 0.64 0.56 0.59 0.65 0.64 0.67 0.74 0.99 1.19 1.33
0.33 0.31 0.28 0.28 0.33 0.33 0.35 0.39 0.47 0.62 0.84 0.93 0.80 0.64 0.56 0.53 0.48 0.47 0.42 0.41 0.42 0.47 0.53 0.56 0.72 0.84 0.76 0.87 0.83 0.70 0.59 0.57 0.59 0.56 0.51 0.51 0.56 0.50 0.43 0.44 0.61 0.86 1.01
0.23 0.24 0.22 0.20 0.20 0.20 0.23 0.30 0.36 0.50 0.60 0.62 0.57 0.47 0.41 0.39 0.38 0.37 0.37 0.38 0.40 0.43 0.48 0.52 0.66 0.75 0.84 0.78 0.61 0.62 0.59 0.60 0.60 0.61 0.62 0.58 0.55 0.62 0.51 0.43 0.45 0.53 0.64
0.21 0.21 0.21 0.20 0.21 0.22 0.23 0.32 0.37 0.39 0.44 0.52 0.50 0.43 0.38 0.35 0.35 0.34 0.35 0.43 0.44 0.42 0.46 0.51 0.54 0.61 0.72 0.64 0.49 0.53 0.50 0.59 0.65 0.68 0.72 0.73 0.69 0.65 0.70 0.63 0.65 0.60 0.55
0.13 0.13 0.13 0.12 0.12 0.12 0.11 0.13 0.17 0.22 0.27 0.30 0.35 0.34 0.29 0.30 0.33 0.33 0.39 0.43 0.43 0.47 0.48 0.52 0.54 0.59 0.62 0.56 0.46 0.47 0.53 0.66 0.69 0.66 0.73 0.75 0.68 0.73 0.77 0.83 0.89 0.82 0.68
0.03 0.03 0.03 0.03 0.03 0.02 0.03 0.04 0.05 0.06 0.09 0.10 0.14 0.18 0.19 0.23 0.28 0.37 0.43 0.42 0.40 0.46 0.47 0.46 0.46 0.50 0.52 0.55 0.43 0.51 0.61 0.67 0.68 0.68 0.74 0.88 0.78 0.74 0.72 0.73 0.83 0.84 0.73
0.00 0.00 0.00 0.01 0.01 0.01 0.01 0.02 0.02 0.02 0.02 0.02 0.04 0.07 0.11 0.17 0.25 0.32 0.32 0.32 0.35 0.39 0.40 0.44 0.43 0.44 0.51 0.61 0.60 0.64 0.64 0.68 0.73 0.81 0.86 0.83 0.87 0.67 0.63 0.63 0.61 0.66 0.65
0.00 0.00 0.00 0.00 0.00 0.00 0.00 0.00 0.00 0.00 0.00 0.00 0.01 0.02 0.04 0.07 0.12 0.20 0.23 0.26 0.30 0.31 0.31 0.32 0.33 0.37 0.48 0.56 0.57 0.58 0.61 0.68 0.68 0.73 0.73 0.70 0.76 0.58 0.49 0.45 0.48 0.51 0.48
0.00 0.00 0.00 0.00 0.00 0.00 0.00 0.00 0.00 0.00 0.00 0.00 0.00 0.00 0.01 0.02 0.06 0.12 0.17 0.21 0.27 0.29 0.27 0.26 0.28 0.32 0.36 0.43 0.45 0.45 0.44 0.47 0.51 0.49 0.57 0.56 0.53 0.45 0.37 0.40 0.41 0.41 0.42
0.00 0.00 0.00 0.00 0.00 0.00 0.00 0.00 0.00 0.00 0.00 0.00 0.00 0.00 0.01 0.01 0.03 0.06 0.13 0.21 0.24 0.23 0.23 0.25 0.27 0.31 0.34 0.33 0.34 0.38 0.38 0.37 0.41 0.39 0.39 0.38 0.37 0.37 0.37 0.37 0.37 0.39 0.42
0.00 0.00 0.00 0.00 0.00 0.00 0.00 0.00 0.00 0.00 0.00 0.00 0.00 0.00 0.00 0.01 0.02 0.02 0.06 0.13 0.15 0.14 0.18 0.23 0.27 0.31 0.34 0.30 0.27 0.27 0.33 0.39 0.44 0.48 0.40 0.36 0.36 0.37 0.42 0.41 0.37 0.38 0.41
0.00 0.00 0.00 0.00 0.00 0.00 0.00 0.00 0.00 0.00 0.00 0.00 0.00 0.00 0.00 0.01 0.01 0.02 0.03 0.05 0.05 0.07 0.08 0.09 0.13 0.13 0.13 0.13 0.13 0.16 0.21 0.28 0.34 0.47 0.52 0.53 0.57 0.59 0.58 0.53 0.42 0.35 0.34

GEFSMW_prec_meanprecacc_090.txt.gz
Total_Precipitation_Accumulation
0.17 0.20 0.22 0.25 0.24 0.24 0.28 0.35 0.40 0.50 0.62 0.84 1.17 1.60 1.82 1.94 1.95 1.98 1.88 1.67 1.45 1.45 1.59 1.55 1.53 1.52 1.46 1.38 1.29 1.36 1.29 1.02 0.85 0.88 0.79 0.61 0.42 0.34 0.27 0.21 0.20 0.25 0.27
0.12 0.11 0.13 0.15 0.14 0.15 0.17 0.27 0.33 0.42 0.56 0.84 1.17 1.52 1.88 1.95 1.97 1.97 1.91 1.79 1.68 1.69 1.72 1.88 1.96 1.92 1.98 1.93 1.71 1.78 1.78 1.45 1.17 1.24 1.38 1.09 0.82 0.51 0.33 0.29 0.26 0.28 0.32
0.11 0.09 0.08 0.09 0.11 0.11 0.12 0.18 0.24 0.39 0.67 1.01 1.33 1.53 1.82 1.94 2.00 1.95 1.95 1.98 1.94 1.83 1.85 1.95 2.08 2.09 2.14 2.19 2.22 2.13 2.16 1.93 1.55 1.38 1.49 1.30 1.11 0.88 0.48 0.35 0.36 0.37 0.40
0.14 0.12 0.09 0.07 0.08 0.09 0.11 0.14 0.20 0.40 0.74 1.08 1.34 1.59 1.94 2.05 2.03 2.05 2.04 2.05 2.07 2.03 2.08 2.09 2.17 2.18 2.18 2.24 2.31 2.25 2.30 2.33 1.94 1.66 1.42 1.20 1.11 1.07 0.82 0.56 0.43 0.45 0.44
0.15 0.12 0.10 0.09 0.10 0.10 0.13 0.20 0.34 0.52 0.78 0.99 1.24 1.60 1.86 1.98 2.13 2.08 2.05 2.05 2.10 2.11 2.14 2.19 2.32 2.29 2.23 2.22 2.40 2.41 2.44 2.35 2.27 2.08 1.87 1.68 1.42 1.05 1.04 0.96 0.72 0.57 0.44
0.16 0.16 0.15 0.15 0.16 0.18 0.24 0.33 0.49 0.64 0.85 1.02 1.22 1.41 1.67 1.82 1.97 2.07 2.00 1.99 2.03 2.11 2.00 1.93 2.05 2.10 2.11 2.11 2.26 2.41 2.49 2.43 2.46 2.32 2.01 1.85 1.66 1.34 1.27 1.12 0.95 0.85 0.62
0.26 0.30 0.31 0.34 0.41 0.44 0.48 0.56 0.65 0.76 0.87 0.97 1.06 1.13 1.30 1.47 1.54 1.70 1.79 1.91 1.92 1.95 1.95 1.84 1.83 1.81 1.75 1.78 1.92 1.99 2.04 2.16 2.28 2.19 1.97 1.90 1.68 1.57 1.53 1.39 1.18 0.97 0.68
0.43 0.53 0.61 0.69 0.76 0.75 0.74 0.81 0.86 0.84 0.83 0.87 0.94 0.97 1.04 1.12 1.20 1.25 1.29 1.47 1.63 1.66 1.71 1.69 1.62 1.61 1.66 1.67 1.75 1.77 1.77 1.78 1.86 1.88 1.91 1.93 1.78 1.65 1.50 1.44 1.52 1.32 1.02
0.71 0.81 0.91 0.92 0.93 0.90 0.85 0.86 0.89 0.86 0.84 0.84 0.84 0.80 0.79 0.86 0.96 0.99 1.05 1.12 1.22 1.23 1.29 1.37 1.40 1.43 1.50 1.56 1.67 1.74 1.74 1.68 1.66 1.77 1.82 1.76 1.71 1.64 1.49 1.40 1.41 1.45 1.30
1.06 1.19 1.27 1.17 1.10 1.09 1.13 1.01 0.92 0.85 0.82 0.82 0.82 0.76 0.73 0.77 0.81 0.81 0.87 0.85 0.87 0.87 0.92 1.04 1.17 1.32 1.43 1.50 1.57 1.61 1.67 1.70 1.67 1.74 1.83 1.84 1.85 1.85 1.73 1.57 1.47 1.36 1.32
1.43 1.52 1.53 1.43 1.23 1.10 1.09 1.04 0.93 0.82 0.71 0.70 0.76 0.76 0.71 0.72 0.76 0.75 0.70 0.64 0.66 0.71 0.81 0.85 0.98 1.10 1.21 1.40 1.57 1.59 1.59 1.61 1.59 1.56 1.63 1.73 1.82 1.93 1.93 1.87 1.71 1.53 1.46
1.30 1.34 1.30 1.29 1.18 1.08 1.00 0.95 0.85 0.71 0.65 0.70 0.72 0.75 0.67 0.61 0.64 0.63 0.64 0.57 0.54 0.58 0.65 0.76 0.91 1.03 1.10 1.13 1.22 1.30 1.31 1.32 1.36 1.35 1.34 1.42 1.54 1.66 1.79 1.85 1.80 1.75 1.61
0.98 1.07 1.13 1.04 1.00 0.92 0.87 0.95 0.95 0.83 0.81 0.84 0.90 0.83 0.70 0.66 0.64 0.59 0.60 0.56 0.54 0.57 0.62 0.74 0.86 0.90 0.93 0.97 0.93 0.97 1.05 1.07 1.07 1.12 1.11 1.13 1.23 1.34 1.47 1.56 1.63 1.71 1.73
0.78 0.84 0.92 0.88 0.89 0.83 0.80 0.89 0.94 0.95 1.02 1.10 1.06 0.89 0.77 0.70 0.64 0.59 0.53 0.53 0.56 0.60 0.65 0.79 0.87 0.87 0.81 0.88 0.88 0.87 0.87 0.86 0.83 0.88 0.91 0.94 0.96 1.01 1.13 1.28 1.46 1.61 1.70
0.56 0.55 0.55 0.56 0.63 0.63 0.60 0.65 0.72 0.83 0.98 1.05 0.94 0.80 0.68 0.58 0.53 0.56 0.51 0.51 0.58 0.61 0.67 0.71 0.81 0.85 0.82 0.84 0.89 0.85 0.75 0.71 0.73 0.71 0.63 0.65 0.71 0.72 0.74 0.80 1.07 1.30 1.46
0.33 0.31 0.28 0.28 0.33 0.33 0.35 0.39 0.47 0.62 0.85 0.93 0.81 0.64 0.56 0.53 0.48 0.47 0.44 0.43 0.44 0.50 0.55 0.59 0.75 0.87 0.78 0.89 0.86 0.76 0.66 0.63 0.65 0.62 0.58 0.57 0.61 0.55 0.48 0.49 0.67 0.95 1.11
0.23 0.24 0.22 0.20 0.20 0.20 0.23 0.30 0.36 0.50 0.60 0.62 0.58 0.47 0.41 0.39 0.38 0.37 0.38 0.40 0.42 0.45 0.50 0.54 0.69 0.79 0.87 0.80 0.65 0.67 0.65 0.65 0.65 0.66 0.68 0.63 0.59 0.67 0.57 0.49 0.51 0.60 0.71
0.21 0.21 0.21 0.20 0.21 0.22 0.23 0.32 0.37 0.39 0.45 0.52 0.50 0.44 0.39 0.36 0.35 0.34 0.35 0.43 0.44 0.43 0.48 0.54 0.57 0.64 0.76 0.69 0.55 0.58 0.55 0.65 0.72 0.74 0.76 0.78 0.74 0.71 0.77 0.71 0.72 0.68 0.62
0.13 0.13 0.13 0.12 0.12 0.12 0.11 0.13 0.17 0.22 0.27 0.30 0.35 0.34 0.29 0.30 0.34 0.33 0.39 0.43 0.44 0.47 0.49 0.54 0.57 0.62 0.65 0.61 0.52 0.53 0.58 0.72 0.75 0.72 0.79 0.80 0.73 0.77 0.82 0.91 0.97 0.90 0.76
0.03 0.03 0.03 0.03 0.03 0.02 0.03 0.04 0.05 0.06 0.09 0.10 0.14 0.18 0.19 0.23 0.29 0.38 0.44 0.42 0.41 0.46 0.48 0.47 0.47 0.51 0.53 0.56 0.46 0.56 0.67 0.73 0.73 0.74 0.79 0.92 0.81 0.77 0.76 0.81 0.91 0.91 0.80
0.00 0.00 0.00 0.01 0.01 0.01 0.01 0.02 0.02 0.02 0.02 0.02 0.04 0.07 0.11 0.17 0.25 0.33 0.32 0.33 0.36 0.39 0.41 0.44 0.43 0.44 0.51 0.61 0.61 0.66 0.68 0.73 0.78 0.86 0.90 0.86 0.89 0.70 0.66 0.69 0.68 0.73 0.70
0.00 0.00 0.00 0.00 0.00 0.00 0.00 0.00 0.00 0.00 0.00 0.00 0.01 0.02 0.04 0.07 0.12 0.20 0.23 0.26 0.30 0.32 0.32 0.32 0.33 0.37 0.48 0.56 0.57 0.59 0.63 0.70 0.71 0.77 0.76 0.73 0.77 0.59 0.51 0.48 0.53 0.57 0.55
0.00 0.00 0.00 0.00 0.00 0.00 0.00 0.00 0.00 0.00 0.00 0.00 0.00 0.00 0.01 0.02 0.06 0.12 0.17 0.21 0.27 0.29 0.28 0.26 0.28 0.32 0.36 0.44 0.46 0.46 0.45 0.48 0.52 0.50 0.58 0.58 0.55 0.48 0.40 0.44 0.47 0.48 0.50
0.00 0.00 0.00 0.00 0.00 0.00 0.00 0.00 0.00 0.00 0.00 0.00 0.00 0.00 0.01 0.01 0.03 0.06 0.13 0.21 0.24 0.23 0.24 0.26 0.27 0.31 0.34 0.34 0.35 0.38 0.39 0.37 0.41 0.40 0.40 0.39 0.38 0.40 0.40 0.41 0.43 0.47 0.51
0.00 0.00 0.00 0.00 0.00 0.00 0.00 0.00 0.00 0.00 0.00 0.00 0.00 0.00 0.00 0.01 0.02 0.02 0.06 0.13 0.15 0.14 0.18 0.23 0.27 0.31 0.34 0.30 0.27 0.27 0.34 0.40 0.45 0.49 0.41 0.37 0.37 0.40 0.46 0.47 0.42 0.43 0.46
0.00 0.00 0.00 0.00 0.00 0.00 0.00 0.00 0.00 0.00 0.00 0.00 0.00 0.00 0.00 0.01 0.01 0.02 0.03 0.05 0.05 0.07 0.08 0.09 0.13 0.13 0.13 0.13 0.13 0.16 0.21 0.28 0.34 0.48 0.54 0.55 0.59 0.61 0.59 0.56 0.46 0.39 0.38

GEFSMW_prec_meanprecacc_096.txt.gz
Total_Precipitation_Accumulation
0.17 0.20 0.22 0.25 0.24 0.24 0.28 0.35 0.40 0.50 0.62 0.84 1.17 1.60 1.82 1.94 1.96 1.98 1.89 1.68 1.46 1.46 1.60 1.55 1.54 1.52 1.47 1.41 1.33 1.41 1.35 1.08 0.95 0.99 0.90 0.74 0.55 0.51 0.46 0.37 0.35 0.43 0.48
0.12 0.11 0.13 0.15 0.14 0.15 0.17 0.27 0.33 0.42 0.56 0.85 1.17 1.52 1.88 1.96 1.98 1.98 1.93 1.80 1.68 1.70 1.73 1.89 1.96 1.93 1.99 1.94 1.74 1.81 1.82 1.51 1.25 1.32 1.48 1.19 0.93 0.61 0.51 0.48 0.42 0.43 0.50
0.11 0.09 0.08 0.09 0.11 0.11 0.12 0.18 0.24 0.39 0.67 1.01 1.33 1.53 1.82 1.95 2.01 1.96 1.97 1.99 1.94 1.84 1.86 1.96 2.09 2.10 2.15 2.20 2.24 2.15 2.20 1.98 1.62 1.47 1.58 1.37 1.17 0.96 0.59 0.52 0.55 0.56 0.58
0.14 0.12 0.09 0.07 0.08 0.09 0.11 0.14 0.20 0.40 0.74 1.08 1.34 1.59 1.94 2.05 2.03 2.05 2.04 2.06 2.08 2.03 2.09 2.11 2.19 2.20 2.19 2.26 2.35 2.28 2.36 2.38 2.02 1.75 1.50 1.28 1.17 1.13 0.88 0.67 0.58 0.63 0.65
0.15 0.12 0.10 0.09 0.10 0.10 0.13 0.20 0.34 0.52 0.78 0.99 1.24 1.60 1.86 1.98 2.14 2.08 2.05 2.05 2.11 2.13 2.15 2.21 2.34 2.31 2.24 2.23 2.44 2.46 2.49 2.41 2.32 2.15 1.96 1.79 1.49 1.10 1.08 1.02 0.82 0.69 0.60
0.16 0.16 0.15 0.15 0.16 0.18 0.24 0.33 0.49 0.64 0.85 1.02 1.22 1.41 1.67 1.82 1.97 2.07 2.01 1.99 2.04 2.14 2.03 1.96 2.08 2.11 2.12 2.13 2.30 2.45 2.53 2.47 2.50 2.38 2.08 1.95 1.77 1.41 1.33 1.17 1.02 0.94 0.74
0.26 0.30 0.31 0.34 0.41 0.44 0.48 0.56 0.65 0.76 0.87 0.97 1.06 1.13 1.30 1.47 1.54 1.71 1.79 1.91 1.92 1.97 1.98 1.88 1.86 1.85 1.79 1.81 1.94 2.01 2.07 2.18 2.31 2.23 2.00 1.93 1.74 1.65 1.61 1.45 1.23 1.05 0.82
0.43 0.53 0.61 0.69 0.76 0.75 0.74 0.81 0.86 0.84 0.83 0.87 0.94 0.97 1.04 1.13 1.21 1.26 1.30 1.48 1.64 1.68 1.74 1.72 1.65 1.67 1.71 1.71 1.77 1.78 1.79 1.81 1.88 1.89 1.92 1.94 1.80 1.70 1.57 1.49 1.57 1.39 1.15
0.71 0.81 0.91 0.92 0.93 0.90 0.85 0.86 0.89 0.86 0.84 0.84 0.84 0.80 0.79 0.86 0.96 0.99 1.06 1.13 1.23 1.25 1.31 1.39 1.43 1.49 1.55 1.60 1.71 1.76 1.76 1.71 1.68 1.80 1.85 1.77 1.72 1.69 1.54 1.45 1.46 1.50 1.39
1.06 1.19 1.27 1.17 1.10 1.09 1.13 1.02 0.93 0.85 0.82 0.82 0.82 0.76 0.73 0.77 0.81 0.82 0.88 0.87 0.89 0.89 0.95 1.06 1.21 1.37 1.47 1.55 1.61 1.63 1.70 1.72 1.69 1.77 1.86 1.86 1.87 1.89 1.79 1.62 1.53 1.42 1.38
1.43 1.52 1.53 1.43 1.23 1.10 1.09 1.04 0.93 0.82 0.71 0.70 0.76 0.76 0.71 0.72 0.77 0.76 0.71 0.65 0.68 0.73 0.83 0.88 1.02 1.16 1.27 1.45 1.60 1.61 1.62 1.63 1.61 1.59 1.67 1.77 1.87 1.97 1.97 1.92 1.75 1.59 1.52
1.30 1.34 1.30 1.29 1.18 1.08 1.00 0.95 0.85 0.71 0.65 0.70 0.73 0.75 0.67 0.61 0.64 0.64 0.65 0.57 0.55 0.58 0.67 0.78 0.95 1.08 1.15 1.17 1.25 1.32 1.35 1.35 1.39 1.38 1.36 1.46 1.58 1.70 1.85 1.90 1.84 1.79 1.67
0.98 1.07 1.13 1.04 1.00 0.92 0.87 0.95 0.95 0.83 0.81 0.84 0.90 0.83 0.70 0.66 0.64 0.60 0.60 0.56 0.54 0.58 0.62 0.76 0.88 0.93 0.97 1.00 0.97 1.02 1.10 1.12 1.11 1.16 1.14 1.16 1.27 1.40 1.52 1.61 1.67 1.76 1.79
0.78 0.84 0.92 0.88 0.89 0.83 0.80 0.89 0.94 0.95 1.02 1.10 1.06 0.89 0.77 0.70 0.64 0.59 0.53 0.53 0.57 0.60 0.66 0.81 0.88 0.89 0.82 0.90 0.91 0.91 0.93 0.91 0.88 0.92 0.93 0.97 1.00 1.06 1.18 1.34 1.52 1.67 1.77
0.56 0.55 0.55 0.56 0.63 0.63 0.60 0.65 0.72 0.83 0.98 1.05 0.94 0.80 0.68 0.58 0.53 0.56 0.51 0.52 0.58 0.61 0.67 0.72 0.82 0.86 0.83 0.85 0.91 0.89 0.78 0.75 0.76 0.74 0.66 0.67 0.74 0.75 0.80 0.87 1.14 1.37 1.53
0.33 0.31 0.28 0.28 0.33 0.33 0.35 0.39 0.47 0.62 0.85 0.93 0.81 0.64 0.56 0.53 0.48 0.47 0.44 0.43 0.44 0.50 0.56 0.61 0.77 0.88 0.79 0.90 0.88 0.79 0.69 0.65 0.68 0.65 0.60 0.59 0.64 0.57 0.51 0.53 0.73 1.01 1.17
0.23 0.24 0.22 0.20 0.20 0.20 0.23 0.30 0.36 0.50 0.60 0.62 0.58 0.47 0.41 0.39 0.38 0.37 0.38 0.40 0.42 0.45 0.50 0.55 0.70 0.80 0.88 0.82 0.68 0.70 0.67 0.67 0.68 0.70 0.70 0.64 0.60 0.69 0.59 0.54 0.57 0.65 0.77
0.21 0.21 0.21 0.20 0.21 0.22 0.23 0.32 0.37 0.39 0.45 0.52 0.50 0.44 0.39 0.36 0.35 0.34 0.35 0.43 0.44 0.43 0.48 0.54 0.57 0.65 0.78 0.71 0.58 0.61 0.58 0.67 0.74 0.76 0.80 0.83 0.77 0.73 0.80 0.75 0.77 0.72 0.65
0.13 0.13 0.13 0.12 0.12 0.12 0.11 0.13 0.17 0.22 0.27 0.30 0.35 0.34 0.29 0.30 0.34 0.33 0.39 0.43 0.44 0.47 0.49 0.54 0.57 0.63 0.67 0.63 0.55 0.55 0.60 0.73 0.76 0.74 0.83 0.84 0.76 0.80 0.86 0.95 1.01 0.93 0.78
0.03 0.03 0.03 0.03 0.03 0.02 0.03 0.04 0.05 0.06 0.09 0.10 0.14 0.18 0.19 0.23 0.29 0.38 0.44 0.42 0.41 0.46 0.48 0.47 0.47 0.51 0.53 0.58 0.48 0.58 0.68 0.73 0.74 0.75 0.80 0.94 0.83 0.80 0.79 0.84 0.95 0.94 0.82
0.00 0.00 0.00 0.01 0.01 0.01 0.01 0.02 0.02 0.02 0.02 0.02 0.04 0.07 0.11 0.17 0.25 0.33 0.32 0.33 0.36 0.39 0.41 0.44 0.43 0.44 0.51 0.61 0.61 0.67 0.69 0.74 0.79 0.87 0.91 0.88 0.91 0.73 0.69 0.71 0.71 0.76 0.74
0.00 0.00 0.00 0.00 0.00 0.00 0.00 0.00 0.00 0.00 0.00 0.00 0.01 0.02 0.04 0.07 0.12 0.20 0.23 0.26 0.30 0.32 0.32 0.32 0.33 0.37 0.48 0.56 0.58 0.59 0.63 0.72 0.73 0.78 0.77 0.74 0.79 0.62 0.53 0.50 0.56 0.60 0.59
0.00 0.00 0.00 0.00 0.00 0.00 0.00 0.00 0.00 0.00 0.00 0.00 0.00 0.00 0.01 0.02 0.06 0.12 0.17 0.21 0.27 0.29 0.28 0.26 0.28 0.32 0.36 0.44 0.47 0.46 0.46 0.48 0.52 0.51 0.58 0.58 0.56 0.49 0.43 0.47 0.50 0.51 0.53
0.00 0.00 0.00 0.00 0.00 0.00 0.00 0.00 0.00 0.00 0.00 0.00 0.00 0.00 0.01 0.01 0.03 0.06 0.13 0.21 0.24 0.23 0.24 0.26 0.27 0.31 0.34 0.34 0.35 0.39 0.39 0.37 0.41 0.40 0.40 0.39 0.39 0.40 0.41 0.44 0.47 0.51 0.54
0.00 0.00 0.00 0.00 0.00 0.00 0.00 0.00 0.00 0.00 0.00 0.00 0.00 0.00 0.00 0.01 0.02 0.02 0.06 0.13 0.15 0.14 0.18 0.23 0.27 0.31 0.34 0.30 0.27 0.27 0.34 0.40 0.45 0.49 0.41 0.37 0.38 0.40 0.47 0.48 0.45 0.47 0.50
0.00 0.00 0.00 0.00 0.00 0.00 0.00 0.00 0.00 0.00 0.00 0.00 0.00 0.00 0.00 0.01 0.01 0.02 0.03 0.05 0.05 0.07 0.08 0.09 0.13 0.13 0.13 0.13 0.13 0.16 0.21 0.28 0.34 0.48 0.54 0.55 0.59 0.61 0.60 0.57 0.48 0.42 0.41

GEFSMW_prec_meanprecacc_102.txt.gz
Total_Precipitation_Accumulation
0.17 0.20 0.22 0.25 0.24 0.24 0.28 0.35 0.40 0.50 0.62 0.84 1.17 1.60 1.82 1.95 1.96 1.99 1.89 1.68 1.46 1.46 1.60 1.55 1.54 1.52 1.48 1.42 1.35 1.43 1.37 1.12 1.00 1.06 0.98 0.83 0.64 0.61 0.54 0.45 0.44 0.52 0.56
0.12 0.11 0.13 0.15 0.14 0.15 0.17 0.27 0.33 0.42 0.56 0.85 1.17 1.52 1.88 1.96 1.98 1.99 1.95 1.81 1.69 1.70 1.73 1.89 1.96 1.93 1.99 1.95 1.75 1.83 1.84 1.53 1.29 1.38 1.54 1.27 1.02 0.68 0.58 0.55 0.49 0.52 0.58
0.11 0.09 0.08 0.09 0.11 0.11 0.12 0.18 0.24 0.39 0.67 1.01 1.33 1.53 1.82 1.95 2.01 1.96 1.97 2.00 1.95 1.84 1.86 1.96 2.09 2.10 2.15 2.20 2.25 2.17 2.22 2.01 1.65 1.51 1.64 1.43 1.26 1.04 0.66 0.58 0.62 0.64 0.67
0.14 0.12 0.09 0.07 0.08 0.09 0.11 0.14 0.20 0.40 0.74 1.08 1.34 1.59 1.94 2.05 2.03 2.06 2.04 2.06 2.08 2.03 2.09 2.11 2.19 2.20 2.19 2.26 2.36 2.30 2.37 2.40 2.04 1.78 1.55 1.33 1.23 1.21 0.96 0.73 0.65 0.71 0.74
0.15 0.12 0.10 0.09 0.10 0.10 0.13 0.20 0.34 0.52 0.78 0.99 1.24 1.60 1.86 1.98 2.14 2.08 2.05 2.06 2.11 2.13 2.16 2.21 2.34 2.31 2.25 2.24 2.45 2.47 2.51 2.42 2.35 2.18 2.00 1.84 1.53 1.15 1.15 1.10 0.89 0.76 0.67
0.16 0.16 0.15 0.15 0.16 0.18 0.24 0.33 0.49 0.64 0.85 1.02 1.22 1.41 1.67 1.82 1.97 2.07 2.01 2.00 2.04 2.14 2.04 1.97 2.09 2.13 2.14 2.15 2.32 2.46 2.54 2.49 2.52 2.40 2.12 2.01 1.83 1.46 1.38 1.23 1.08 1.00 0.80
0.26 0.30 0.31 0.34 0.41 0.44 0.48 0.56 0.65 0.76 0.87 0.97 1.06 1.13 1.30 1.47 1.54 1.71 1.79 1.91 1.92 1.97 1.99 1.89 1.88 1.89 1.84 1.85 1.97 2.03 2.09 2.21 2.34 2.24 2.02 1.97 1.78 1.70 1.66 1.51 1.29 1.10 0.87
0.43 0.53 0.61 0.69 0.76 0.75 0.74 0.81 0.86 0.84 0.83 0.87 0.94 0.97 1.04 1.13 1.21 1.26 1.30 1.48 1.64 1.68 1.75 1.73 1.67 1.70 1.74 1.73 1.79 1.80 1.81 1.83 1.90 1.91 1.94 1.97 1.83 1.73 1.61 1.54 1.62 1.43 1.19
0.71 0.81 0.91 0.92 0.93 0.90 0.85 0.86 0.89 0.86 0.84 0.84 0.84 0.80 0.79 0.86 0.97 0.99 1.06 1.13 1.23 1.26 1.31 1.40 1.46 1.53 1.58 1.62 1.73 1.78 1.78 1.72 1.70 1.81 1.87 1.79 1.75 1.72 1.59 1.49 1.51 1.55 1.42
1.06 1.19 1.27 1.17 1.10 1.09 1.13 1.02 0.93 0.85 0.82 0.82 0.82 0.76 0.73 0.77 0.81 0.82 0.88 0.87 0.89 0.90 0.95 1.07 1.24 1.42 1.53 1.58 1.63 1.65 1.71 1.73 1.70 1.79 1.88 1.88 1.89 1.92 1.83 1.66 1.57 1.47 1.43
1.43 1.52 1.53 1.43 1.23 1.10 1.09 1.04 0.93 0.82 0.71 0.70 0.76 0.76 0.71 0.72 0.77 0.76 0.71 0.65 0.68 0.74 0.84 0.89 1.04 1.19 1.33 1.50 1.63 1.64 1.63 1.64 1.63 1.60 1.68 1.79 1.91 2.00 2.01 1.96 1.80 1.63 1.55
1.30 1.34 1.30 1.29 1.18 1.08 1.00 0.95 0.85 0.71 0.65 0.70 0.73 0.75 0.67 0.61 0.64 0.64 0.65 0.57 0.55 0.59 0.67 0.80 0.97 1.10 1.17 1.20 1.28 1.35 1.36 1.37 1.41 1.40 1.37 1.48 1.61 1.73 1.88 1.94 1.88 1.84 1.71
0.98 1.07 1.13 1.04 1.00 0.92 0.87 0.95 0.95 0.83 0.81 0.84 0.90 0.83 0.70 0.66 0.64 0.60 0.61 0.56 0.55 0.59 0.64 0.78 0.90 0.95 0.99 1.02 1.00 1.06 1.14 1.16 1.14 1.18 1.16 1.18 1.29 1.42 1.55 1.64 1.71 1.80 1.84
0.78 0.84 0.92 0.88 0.89 0.83 0.80 0.89 0.94 0.95 1.02 1.10 1.06 0.89 0.77 0.70 0.64 0.59 0.53 0.53 0.57 0.61 0.67 0.83 0.91 0.92 0.85 0.93 0.94 0.96 0.99 0.96 0.92 0.95 0.96 0.98 1.02 1.09 1.20 1.36 1.55 1.71 1.80
0.56 0.55 0.55 0.56 0.63 0.63 0.60 0.65 0.72 0.83 0.98 1.05 0.94 0.80 0.68 0.58 0.53 0.56 0.51 0.52 0.58 0.61 0.68 0.74 0.85 0.89 0.85 0.87 0.94 0.92 0.82 0.79 0.79 0.77 0.69 0.70 0.76 0.77 0.82 0.89 1.15 1.39 1.56
0.33 0.31 0.28 0.28 0.33 0.33 0.35 0.39 0.47 0.62 0.85 0.93 0.81 0.64 0.56 0.53 0.48 0.47 0.44 0.43 0.44 0.50 0.56 0.62 0.78 0.90 0.81 0.91 0.89 0.80 0.70 0.67 0.70 0.67 0.61 0.60 0.64 0.58 0.53 0.56 0.76 1.02 1.19
0.23 0.24 0.22 0.20 0.20 0.20 0.23 0.30 0.36 0.50 0.60 0.62 0.58 0.47 0.41 0.39 0.38 0.37 0.38 0.40 0.42 0.45 0.50 0.56 0.71 0.81 0.89 0.83 0.68 0.71 0.68 0.67 0.69 0.72 0.72 0.65 0.61 0.69 0.60 0.55 0.61 0.69 0.80
0.21 0.21 0.21 0.20 0.21 0.22 0.23 0.32 0.37 0.39 0.45 0.52 0.50 0.44 0.39 0.36 0.35 0.34 0.35 0.43 0.44 0.43 0.48 0.54 0.58 0.66 0.79 0.73 0.58 0.61 0.58 0.68 0.75 0.78 0.83 0.84 0.78 0.75 0.81 0.76 0.78 0.74 0.68
0.13 0.13 0.13 0.12 0.12 0.12 0.11 0.13 0.17 0.22 0.27 0.30 0.35 0.34 0.29 0.30 0.34 0.33 0.39 0.43 0.44 0.47 0.49 0.54 0.57 0.63 0.67 0.64 0.55 0.56 0.60 0.74 0.77 0.75 0.84 0.85 0.77 0.83 0.89 0.97 1.02 0.94 0.80
0.03 0.03 0.03 0.03 0.03 0.02 0.03 0.04 0.05 0.06 0.09 0.10 0.14 0.18 0.19 0.23 0.29 0.38 0.44 0.42 0.41 0.46 0.48 0.47 0.47 0.51 0.54 0.58 0.48 0.58 0.69 0.74 0.75 0.76 0.81 0.95 0.86 0.83 0.81 0.86 0.96 0.95 0.84
0.00 0.00 0.00 0.01 0.01 0.01 0.01 0.02 0.02 0.02 0.02 0.02 0.04 0.07 0.11 0.17 0.25 0.33 0.32 0.33 0.36 0.39 0.41 0.44 0.43 0.44 0.51 0.62 0.62 0.67 0.70 0.74 0.79 0.87 0.92 0.89 0.95 0.77 0.73 0.75 0.73 0.79 0.76
0.00 0.00 0.00 0.00 0.00 0.00 0.00 0.00 0.00 0.00 0.00 0.00 0.01 0.02 0.04 0.07 0.12 0.20 0.23 0.26 0.30 0.32 0.32 0.32 0.33 0.37 0.48 0.56 0.58 0.59 0.64 0.72 0.73 0.78 0.77 0.74 0.80 0.64 0.55 0.53 0.59 0.64 0.63
0.00 0.00 0.00 0.00 0.00 0.00 0.00 0.00 0.00 0.00 0.00 0.00 0.00 0.00 0.01 0.02 0.06 0.12 0.17 0.21 0.27 0.29 0.28 0.26 0.28 0.32 0.36 0.44 0.47 0.47 0.46 0.48 0.52 0.51 0.59 0.59 0.56 0.51 0.44 0.48 0.53 0.54 0.54
0.00 0.00 0.00 0.00 0.00 0.00 0.00 0.00 0.00 0.00 0.00 0.00 0.00 0.00 0.01 0.01 0.03 0.06 0.13 0.21 0.24 0.23 0.24 0.26 0.27 0.31 0.34 0.34 0.35 0.39 0.39 0.37 0.42 0.41 0.42 0.41 0.40 0.41 0.42 0.44 0.49 0.54 0.56
0.00 0.00 0.00 0.00 0.00 0.00 0.00 0.00 0.00 0.00 0.00 0.00 0.00 0.00 0.00 0.01 0.02 0.02 0.06 0.13 0.15 0.14 0.18 0.23 0.27 0.31 0.34 0.30 0.27 0.27 0.34 0.40 0.45 0.49 0.42 0.37 0.38 0.41 0.47 0.49 0.46 0.49 0.52
0.00 0.00 0.00 0.00 0.00 0.00 0.00 0.00 0.00 0.00 0.00 0.00 0.00 0.00 0.00 0.01 0.01 0.02 0.03 0.05 0.05 0.07 0.08 0.09 0.13 0.13 0.13 0.13 0.13 0.16 0.21 0.28 0.34 0.48 0.54 0.55 0.60 0.62 0.60 0.57 0.49 0.43 0.42

GEFSMW_prec_meanprecacc_108.txt.gz
Total_Precipitation_Accumulation
0.17 0.20 0.22 0.25 0.24 0.24 0.28 0.35 0.40 0.50 0.62 0.84 1.17 1.60 1.82 1.95 1.97 1.99 1.90 1.69 1.46 1.46 1.61 1.56 1.55 1.53 1.49 1.44 1.37 1.46 1.40 1.15 1.04 1.14 1.07 0.92 0.73 0.68 0.62 0.54 0.55 0.62 0.62
0.12 0.11 0.13 0.15 0.14 0.15 0.17 0.27 0.33 0.42 0.56 0.85 1.17 1.52 1.88 1.97 1.99 1.99 1.95 1.83 1.70 1.70 1.73 1.89 1.98 1.95 2.01 1.97 1.77 1.86 1.87 1.56 1.32 1.44 1.63 1.35 1.12 0.75 0.63 0.62 0.57 0.61 0.69
0.11 0.09 0.08 0.09 0.11 0.11 0.12 0.18 0.24 0.39 0.67 1.01 1.33 1.53 1.82 1.95 2.01 1.97 1.97 2.00 1.95 1.85 1.87 1.97 2.10 2.11 2.17 2.22 2.27 2.19 2.25 2.04 1.69 1.56 1.72 1.52 1.35 1.12 0.72 0.63 0.68 0.72 0.78
0.14 0.12 0.09 0.07 0.08 0.09 0.11 0.14 0.20 0.40 0.74 1.08 1.34 1.59 1.94 2.05 2.03 2.06 2.05 2.06 2.09 2.04 2.10 2.11 2.20 2.22 2.22 2.29 2.38 2.33 2.41 2.43 2.07 1.81 1.58 1.38 1.30 1.30 1.04 0.80 0.70 0.77 0.82
0.15 0.12 0.10 0.09 0.10 0.10 0.13 0.20 0.34 0.52 0.78 0.99 1.24 1.60 1.86 1.98 2.14 2.08 2.06 2.06 2.13 2.15 2.16 2.22 2.35 2.33 2.28 2.27 2.47 2.50 2.55 2.46 2.38 2.22 2.04 1.87 1.58 1.21 1.21 1.16 0.95 0.83 0.73
0.16 0.16 0.15 0.15 0.16 0.18 0.24 0.33 0.49 0.64 0.85 1.02 1.22 1.41 1.67 1.82 1.97 2.07 2.01 2.00 2.06 2.16 2.05 1.98 2.11 2.16 2.17 2.17 2.33 2.48 2.58 2.52 2.55 2.44 2.16 2.06 1.89 1.52 1.44 1.28 1.14 1.06 0.86
0.26 0.30 0.31 0.34 0.41 0.44 0.48 0.56 0.65 0.76 0.87 0.97 1.06 1.13 1.30 1.47 1.54 1.71 1.80 1.92 1.93 1.99 2.02 1.91 1.90 1.93 1.87 1.89 1.99 2.05 2.11 2.23 2.37 2.27 2.06 2.01 1.83 1.77 1.74 1.60 1.37 1.15 0.91
0.43 0.53 0.61 0.69 0.76 0.75 0.74 0.81 0.86 0.84 0.83 0.87 0.94 0.97 1.04 1.13 1.21 1.26 1.30 1.48 1.65 1.69 1.77 1.76 1.69 1.73 1.78 1.77 1.82 1.83 1.84 1.86 1.92 1.93 1.97 2.00 1.86 1.78 1.68 1.63 1.72 1.50 1.25
0.71 0.81 0.91 0.92 0.93 0.90 0.85 0.86 0.89 0.86 0.84 0.84 0.84 0.80 0.79 0.86 0.97 1.00 1.07 1.14 1.24 1.26 1.32 1.41 1.48 1.55 1.60 1.66 1.77 1.81 1.80 1.75 1.72 1.83 1.89 1.82 1.78 1.76 1.64 1.56 1.60 1.64 1.49
1.06 1.19 1.27 1.17 1.10 1.09 1.13 1.02 0.93 0.85 0.82 0.82 0.82 0.76 0.73 0.78 0.81 0.82 0.89 0.87 0.89 0.91 0.96 1.08 1.25 1.45 1.55 1.61 1.66 1.68 1.74 1.76 1.72 1.81 1.91 1.91 1.92 1.95 1.86 1.70 1.63 1.54 1.50
1.43 1.52 1.53 1.43 1.23 1.10 1.10 1.04 0.93 0.82 0.72 0.71 0.76 0.76 0.71 0.73 0.77 0.76 0.71 0.66 0.69 0.75 0.86 0.90 1.05 1.21 1.37 1.54 1.67 1.66 1.66 1.67 1.65 1.62 1.71 1.82 1.93 2.02 2.03 1.99 1.83 1.67 1.60
1.30 1.34 1.30 1.29 1.18 1.08 1.00 0.95 0.85 0.71 0.65 0.70 0.73 0.75 0.67 0.61 0.64 0.64 0.66 0.58 0.55 0.60 0.69 0.81 0.98 1.12 1.21 1.24 1.31 1.38 1.40 1.41 1.44 1.43 1.40 1.51 1.63 1.76 1.91 1.97 1.91 1.87 1.75
0.98 1.07 1.13 1.04 1.00 0.92 0.87 0.95 0.95 0.83 0.81 0.84 0.90 0.83 0.70 0.66 0.64 0.60 0.61 0.57 0.56 0.59 0.65 0.79 0.92 0.97 1.02 1.04 1.03 1.11 1.19 1.21 1.18 1.22 1.19 1.21 1.32 1.46 1.59 1.68 1.75 1.85 1.88
0.78 0.84 0.92 0.88 0.89 0.83 0.80 0.89 0.94 0.95 1.02 1.10 1.06 0.89 0.77 0.70 0.64 0.59 0.54 0.54 0.58 0.62 0.68 0.84 0.92 0.94 0.88 0.95 0.97 1.00 1.02 1.00 0.96 0.99 1.00 1.03 1.06 1.12 1.24 1.40 1.60 1.76 1.86
0.56 0.55 0.55 0.56 0.63 0.63 0.60 0.65 0.72 0.83 0.98 1.05 0.94 0.80 0.68 0.58 0.53 0.56 0.51 0.52 0.59 0.63 0.69 0.75 0.86 0.90 0.87 0.90 0.96 0.94 0.84 0.82 0.83 0.81 0.73 0.74 0.79 0.79 0.85 0.92 1.19 1.43 1.61
0.33 0.31 0.28 0.28 0.33 0.33 0.35 0.39 0.47 0.62 0.85 0.93 0.81 0.64 0.56 0.53 0.48 0.47 0.44 0.43 0.45 0.51 0.57 0.63 0.79 0.90 0.81 0.92 0.91 0.81 0.72 0.70 0.73 0.70 0.64 0.62 0.66 0.59 0.55 0.58 0.77 1.04 1.23
0.23 0.24 0.22 0.20 0.20 0.20 0.23 0.30 0.36 0.50 0.60 0.62 0.58 0.47 0.41 0.39 0.38 0.37 0.38 0.40 0.42 0.45 0.51 0.56 0.72 0.82 0.90 0.85 0.69 0.72 0.69 0.70 0.73 0.74 0.74 0.67 0.64 0.72 0.63 0.57 0.63 0.71 0.81
0.21 0.21 0.21 0.20 0.21 0.22 0.23 0.32 0.37 0.39 0.45 0.52 0.50 0.44 0.39 0.36 0.35 0.34 0.35 0.43 0.44 0.43 0.48 0.54 0.59 0.67 0.80 0.74 0.59 0.62 0.59 0.69 0.77 0.81 0.88 0.88 0.81 0.79 0.84 0.79 0.80 0.78 0.71
0.13 0.13 0.13 0.12 0.12 0.12 0.11 0.13 0.17 0.22 0.27 0.30 0.35 0.34 0.29 0.30 0.34 0.33 0.39 0.43 0.44 0.48 0.49 0.54 0.57 0.63 0.68 0.64 0.56 0.56 0.62 0.75 0.79 0.76 0.87 0.87 0.80 0.85 0.90 1.00 1.05 0.97 0.83
0.03 0.03 0.03 0.03 0.03 0.02 0.03 0.04 0.05 0.06 0.09 0.10 0.14 0.18 0.19 0.23 0.29 0.38 0.44 0.42 0.41 0.46 0.48 0.47 0.47 0.51 0.54 0.59 0.49 0.59 0.70 0.75 0.76 0.77 0.82 0.96 0.87 0.85 0.83 0.88 0.99 0.97 0.86
0.00 0.00 0.00 0.01 0.01 0.01 0.01 0.02 0.02 0.02 0.02 0.02 0.04 0.07 0.11 0.17 0.25 0.33 0.32 0.33 0.36 0.39 0.41 0.44 0.43 0.44 0.52 0.62 0.62 0.68 0.70 0.74 0.80 0.88 0.93 0.91 0.98 0.82 0.78 0.77 0.75 0.80 0.78
0.00 0.00 0.00 0.00 0.00 0.00 0.00 0.00 0.00 0.00 0.00 0.00 0.01 0.02 0.04 0.07 0.12 0.20 0.23 0.26 0.30 0.32 0.32 0.32 0.33 0.37 0.48 0.56 0.58 0.59 0.64 0.72 0.73 0.78 0.78 0.75 0.82 0.66 0.58 0.55 0.61 0.65 0.65
0.00 0.00 0.00 0.00 0.00 0.00 0.00 0.00 0.00 0.00 0.00 0.00 0.00 0.00 0.01 0.02 0.06 0.12 0.17 0.21 0.27 0.29 0.28 0.26 0.28 0.32 0.36 0.44 0.47 0.47 0.46 0.48 0.53 0.51 0.59 0.59 0.57 0.51 0.45 0.49 0.53 0.55 0.56
0.00 0.00 0.00 0.00 0.00 0.00 0.00 0.00 0.00 0.00 0.00 0.00 0.00 0.00 0.01 0.01 0.03 0.06 0.13 0.21 0.24 0.23 0.24 0.26 0.27 0.31 0.34 0.34 0.35 0.39 0.39 0.38 0.42 0.41 0.43 0.42 0.41 0.42 0.42 0.45 0.49 0.55 0.58
0.00 0.00 0.00 0.00 0.00 0.00 0.00 0.00 0.00 0.00 0.00 0.00 0.00 0.00 0.00 0.01 0.02 0.02 0.06 0.13 0.15 0.14 0.18 0.23 0.27 0.31 0.34 0.30 0.27 0.27 0.34 0.40 0.45 0.49 0.43 0.39 0.39 0.41 0.48 0.49 0.47 0.50 0.54
0.00 0.00 0.00 0.00 0.00 0.00 0.00 0.00 0.00 0.00 0.00 0.00 0.00 0.00 0.00 0.01 0.01 0.02 0.03 0.05 0.05 0.07 0.08 0.09 0.13 0.13 0.13 0.13 0.13 0.16 0.21 0.28 0.34 0.48 0.54 0.55 0.60 0.62 0.60 0.57 0.49 0.44 0.44

GEFSMW_prec_meanprecacc_114.txt.gz
Total_Precipitation_Accumulation
0.17 0.20 0.22 0.25 0.24 0.24 0.28 0.35 0.40 0.50 0.62 0.84 1.17 1.60 1.83 1.96 1.98 2.00 1.90 1.69 1.47 1.48 1.64 1.59 1.57 1.56 1.52 1.48 1.41 1.51 1.45 1.20 1.09 1.19 1.13 0.99 0.80 0.74 0.68 0.62 0.65 0.73 0.72
0.12 0.11 0.13 0.15 0.15 0.15 0.17 0.27 0.33 0.42 0.56 0.85 1.17 1.52 1.88 1.97 1.99 2.01 1.97 1.83 1.71 1.71 1.75 1.93 2.03 1.99 2.06 2.03 1.83 1.93 1.93 1.61 1.37 1.50 1.70 1.42 1.21 0.82 0.69 0.69 0.65 0.70 0.79
0.12 0.10 0.08 0.09 0.11 0.11 0.12 0.18 0.24 0.39 0.67 1.01 1.33 1.53 1.82 1.95 2.02 1.98 1.99 2.01 1.97 1.87 1.89 1.99 2.15 2.16 2.22 2.28 2.33 2.26 2.31 2.09 1.73 1.61 1.79 1.60 1.45 1.23 0.82 0.73 0.76 0.80 0.87
0.14 0.12 0.09 0.07 0.08 0.09 0.11 0.14 0.20 0.40 0.74 1.08 1.34 1.59 1.94 2.05 2.03 2.07 2.06 2.08 2.10 2.06 2.13 2.14 2.24 2.26 2.27 2.34 2.43 2.38 2.47 2.49 2.12 1.86 1.63 1.43 1.37 1.40 1.17 0.91 0.80 0.84 0.89
0.15 0.12 0.11 0.09 0.10 0.10 0.13 0.20 0.34 0.52 0.78 0.99 1.24 1.60 1.86 1.99 2.14 2.09 2.07 2.08 2.15 2.17 2.19 2.25 2.40 2.38 2.34 2.32 2.51 2.55 2.61 2.53 2.44 2.28 2.09 1.93 1.63 1.26 1.29 1.25 1.05 0.89 0.78
0.17 0.16 0.15 0.15 0.16 0.18 0.24 0.33 0.49 0.64 0.85 1.02 1.22 1.41 1.67 1.82 1.97 2.07 2.02 2.03 2.09 2.19 2.09 2.01 2.14 2.19 2.22 2.22 2.38 2.52 2.62 2.58 2.62 2.51 2.22 2.12 1.95 1.57 1.48 1.33 1.20 1.12 0.91
0.26 0.30 0.31 0.34 0.41 0.44 0.48 0.56 0.65 0.76 0.87 0.97 1.07 1.13 1.31 1.48 1.54 1.72 1.81 1.94 1.96 2.02 2.04 1.94 1.93 1.96 1.91 1.94 2.05 2.09 2.16 2.29 2.43 2.33 2.12 2.06 1.88 1.83 1.79 1.65 1.42 1.21 0.97
0.43 0.53 0.61 0.69 0.76 0.75 0.74 0.81 0.86 0.84 0.83 0.88 0.94 0.97 1.04 1.13 1.22 1.27 1.32 1.50 1.67 1.71 1.79 1.79 1.73 1.77 1.82 1.83 1.89 1.89 1.89 1.91 1.97 1.97 2.02 2.06 1.92 1.82 1.72 1.68 1.79 1.56 1.29
0.71 0.81 0.91 0.92 0.93 0.90 0.85 0.86 0.89 0.86 0.84 0.84 0.84 0.80 0.80 0.87 0.98 1.01 1.08 1.15 1.25 1.27 1.33 1.43 1.50 1.59 1.64 1.70 1.82 1.86 1.85 1.80 1.77 1.87 1.93 1.86 1.83 1.80 1.67 1.60 1.66 1.71 1.55
1.06 1.19 1.27 1.17 1.10 1.09 1.13 1.02 0.93 0.86 0.82 0.82 0.82 0.76 0.73 0.78 0.82 0.83 0.90 0.89 0.91 0.94 0.99 1.11 1.27 1.48 1.60 1.64 1.70 1.73 1.80 1.82 1.77 1.85 1.94 1.95 1.96 1.98 1.89 1.73 1.67 1.60 1.57
1.43 1.52 1.53 1.43 1.23 1.10 1.10 1.04 0.93 0.82 0.72 0.71 0.76 0.76 0.71 0.73 0.77 0.77 0.73 0.67 0.69 0.77 0.89 0.94 1.08 1.24 1.41 1.59 1.73 1.73 1.72 1.74 1.72 1.67 1.75 1.85 1.96 2.06 2.07 2.03 1.86 1.72 1.65
1.30 1.34 1.30 1.29 1.18 1.08 1.00 0.95 0.85 0.71 0.65 0.70 0.73 0.75 0.67 0.62 0.65 0.66 0.68 0.59 0.56 0.61 0.71 0.84 1.03 1.15 1.24 1.28 1.36 1.43 1.45 1.47 1.50 1.48 1.45 1.54 1.66 1.79 1.94 2.01 1.95 1.91 1.79
0.98 1.07 1.13 1.04 1.00 0.92 0.87 0.95 0.95 0.83 0.81 0.85 0.90 0.83 0.70 0.66 0.64 0.61 0.64 0.59 0.56 0.61 0.66 0.80 0.95 1.00 1.04 1.08 1.09 1.18 1.26 1.27 1.24 1.27 1.24 1.26 1.36 1.50 1.63 1.72 1.79 1.89 1.91
0.78 0.84 0.92 0.88 0.89 0.83 0.80 0.89 0.94 0.95 1.02 1.10 1.06 0.90 0.77 0.70 0.64 0.60 0.56 0.57 0.58 0.62 0.69 0.84 0.94 0.95 0.90 0.98 1.01 1.05 1.07 1.05 1.01 1.03 1.04 1.08 1.11 1.17 1.29 1.44 1.64 1.81 1.90
0.56 0.55 0.55 0.56 0.63 0.63 0.60 0.65 0.72 0.83 0.98 1.05 0.94 0.80 0.68 0.58 0.53 0.56 0.53 0.54 0.61 0.64 0.71 0.76 0.87 0.91 0.89 0.93 0.98 0.97 0.88 0.86 0.87 0.84 0.75 0.77 0.82 0.82 0.89 0.96 1.23 1.47 1.65
0.33 0.31 0.28 0.28 0.33 0.33 0.35 0.39 0.47 0.62 0.85 0.93 0.81 0.64 0.56 0.53 0.49 0.48 0.45 0.44 0.47 0.53 0.58 0.64 0.80 0.91 0.82 0.93 0.92 0.83 0.76 0.73 0.75 0.72 0.66 0.65 0.69 0.61 0.56 0.60 0.80 1.08 1.27
0.23 0.24 0.22 0.20 0.20 0.20 0.23 0.30 0.36 0.50 0.60 0.62 0.58 0.47 0.41 0.40 0.39 0.38 0.38 0.41 0.43 0.46 0.52 0.56 0.73 0.82 0.90 0.85 0.69 0.73 0.72 0.73 0.74 0.76 0.77 0.70 0.66 0.74 0.65 0.59 0.65 0.73 0.84
0.21 0.21 0.21 0.20 0.21 0.22 0.23 0.32 0.37 0.39 0.45 0.52 0.50 0.44 0.39 0.36 0.36 0.34 0.36 0.44 0.45 0.44 0.49 0.55 0.59 0.67 0.80 0.74 0.59 0.63 0.62 0.72 0.80 0.83 0.91 0.91 0.85 0.83 0.89 0.82 0.83 0.80 0.74
0.13 0.13 0.13 0.12 0.12 0.12 0.11 0.13 0.17 0.22 0.27 0.30 0.35 0.34 0.29 0.30 0.34 0.33 0.39 0.43 0.44 0.48 0.50 0.55 0.58 0.64 0.68 0.64 0.56 0.59 0.66 0.78 0.81 0.78 0.88 0.90 0.84 0.89 0.95 1.05 1.09 1.00 0.87
0.03 0.03 0.03 0.03 0.03 0.02 0.03 0.04 0.05 0.06 0.09 0.10 0.14 0.18 0.19 0.23 0.29 0.38 0.44 0.42 0.41 0.46 0.48 0.47 0.47 0.51 0.54 0.59 0.49 0.60 0.72 0.77 0.79 0.79 0.84 0.97 0.88 0.86 0.84 0.93 1.04 1.01 0.90
0.00 0.00 0.00 0.01 0.01 0.01 0.01 0.02 0.02 0.02 0.02 0.02 0.04 0.07 0.11 0.17 0.25 0.33 0.32 0.33 0.36 0.39 0.41 0.44 0.43 0.44 0.52 0.62 0.62 0.68 0.71 0.76 0.82 0.90 0.95 0.92 0.98 0.82 0.78 0.79 0.80 0.84 0.82
0.00 0.00 0.00 0.00 0.00 0.00 0.00 0.00 0.00 0.00 0.00 0.00 0.01 0.02 0.04 0.07 0.12 0.20 0.23 0.26 0.30 0.32 0.32 0.32 0.33 0.37 0.48 0.56 0.58 0.59 0.64 0.72 0.74 0.79 0.79 0.76 0.82 0.66 0.58 0.55 0.62 0.66 0.68
0.00 0.00 0.00 0.00 0.00 0.00 0.00 0.00 0.00 0.00 0.00 0.00 0.00 0.00 0.01 0.02 0.06 0.12 0.17 0.21 0.27 0.29 0.28 0.26 0.28 0.32 0.36 0.44 0.47 0.47 0.46 0.48 0.53 0.51 0.59 0.59 0.57 0.52 0.45 0.49 0.54 0.55 0.57
0.00 0.00 0.00 0.00 0.00 0.00 0.00 0.00 0.00 0.00 0.00 0.00 0.00 0.00 0.01 0.01 0.03 0.06 0.13 0.21 0.24 0.23 0.24 0.26 0.28 0.31 0.34 0.34 0.35 0.39 0.39 0.38 0.43 0.42 0.43 0.42 0.41 0.42 0.43 0.45 0.50 0.56 0.60
0.00 0.00 0.00 0.00 0.00 0.00 0.00 0.00 0.00 0.00 0.00 0.00 0.00 0.00 0.00 0.01 0.02 0.02 0.06 0.13 0.15 0.14 0.18 0.23 0.27 0.32 0.34 0.30 0.27 0.28 0.34 0.40 0.45 0.50 0.44 0.40 0.40 0.42 0.49 0.50 0.48 0.51 0.55
0.00 0.00 0.00 0.00 0.00 0.00 0.00 0.00 0.00 0.00 0.00 0.00 0.00 0.00 0.00 0.01 0.01 0.02 0.03 0.05 0.05 0.07 0.08 0.09 0.13 0.13 0.13 0.13 0.13 0.16 0.21 0.28 0.34 0.48 0.54 0.56 0.60 0.62 0.61 0.58 0.49 0.44 0.45